NSS-5

Last updated on Jan. 17, 2021, 6:29 a.m. UTC

1 24957U 97053A   21016.75754292  .00000098  00000-0  00000-0 0  9999
2 24957   6.3957  62.5939 0003588 225.1132 151.8792  1.00270295 85342
UTC
Height (km)
Latitude
Longitude
Inclination
Orbital Period
UTC large
Height (km)
Speed (km/s)
/
Latitude / Longitude
Inclination (degrees)
Orbital Period (minutes)
Azimuth
Elevation
Range (km)
Doppler Factor
iOS Compass Heading
iOS Angle

Next 30 passes for location: Hong Kong

Rise time Rise Azimuth (degrees) Set time Set Azimuth (degrees) Duration Max altitude (degrees)

No matching passes for this satellites